Previsão horária em Cegielnia

Hoje, 29 Julho, Quinta-feira

Tempo Temperatura Precipitação Vento Pressão Humidade
00:00 +21°C° 0.4 mm 3 m/s 743 mmHg 84%
01:00 +20°C° 0.4 mm 3 m/s 743 mmHg 89%
02:00 +20°C° 0 mm 4 m/s 743 mmHg 93%
03:00 +20°C° 0.5 mm 3 m/s 743 mmHg 94%
04:00 +20°C° 0.5 mm 3 m/s 743 mmHg 95%
05:00 +20°C° 0.5 mm 3 m/s 743 mmHg 96%
06:00 +20°C° 0 mm 3 m/s 743 mmHg 93%
07:00 +21°C° 0 mm 4 m/s 744 mmHg 89%
08:00 +21°C° 0 mm 4 m/s 744 mmHg 85%
09:00 +22°C° 0 mm 4 m/s 744 mmHg 75%
10:00 +25°C° 0 mm 5 m/s 744 mmHg 65%
11:00 +27°C° 0 mm 5 m/s 744 mmHg 55%
12:00 +27°C° 0 mm 5 m/s 744 mmHg 51%
13:00 +28°C° 0 mm 5 m/s 744 mmHg 46%
14:00 +29°C° 0 mm 5 m/s 744 mmHg 41%
15:00 +29°C° 0 mm 5 m/s 744 mmHg 41%
16:00 +29°C° 0 mm 5 m/s 744 mmHg 41%
17:00 +29°C° 0 mm 5 m/s 744 mmHg 41%
18:00 +27°C° 0 mm 4 m/s 744 mmHg 46%
19:00 +26°C° 0 mm 4 m/s 744 mmHg 52%
20:00 +24°C° 0 mm 3 m/s 744 mmHg 57%
21:00 +22°C° 0 mm 3 m/s 744 mmHg 62%
22:00 +21°C° 0 mm 2 m/s 744 mmHg 67%
23:00 +19°C° 0 mm 2 m/s 745 mmHg 72%

Amanhã, 30 Julho, Sexta-feira

Tempo Temperatura Precipitação Vento Pressão Humidade
00:00 +19°C° 0 mm 2 m/s 745 mmHg 74%
01:00 +18°C° 0 mm 2 m/s 745 mmHg 76%
02:00 +18°C° 0 mm 3 m/s 745 mmHg 78%
03:00 +18°C° 0 mm 2 m/s 745 mmHg 75%
04:00 +18°C° 0 mm 2 m/s 745 mmHg 73%
05:00 +18°C° 0 mm 2 m/s 745 mmHg 71%
06:00 +19°C° 0 mm 2 m/s 745 mmHg 66%
07:00 +21°C° 0 mm 2 m/s 745 mmHg 61%
08:00 +23°C° 0 mm 2 m/s 745 mmHg 57%
09:00 +24°C° 0 mm 3 m/s 745 mmHg 53%
10:00 +26°C° 0 mm 4 m/s 745 mmHg 49%
11:00 +27°C° 0 mm 4 m/s 744 mmHg 46%
12:00 +28°C° 0 mm 5 m/s 744 mmHg 42%
13:00 +29°C° 0 mm 5 m/s 744 mmHg 39%
14:00 +29°C° 0 mm 6 m/s 743 mmHg 36%
15:00 +29°C° 0 mm 6 m/s 743 mmHg 36%
16:00 +29°C° 0 mm 6 m/s 743 mmHg 37%
17:00 +29°C° 0 mm 6 m/s 743 mmHg 37%
18:00 +27°C° 0 mm 4 m/s 743 mmHg 44%
19:00 +25°C° 0 mm 3 m/s 742 mmHg 50%
20:00 +23°C° 0 mm 2 m/s 742 mmHg 57%
21:00 +23°C° 0 mm 2 m/s 742 mmHg 59%
22:00 +22°C° 0 mm 1 m/s 743 mmHg 62%
23:00 +21°C° 0 mm 1 m/s 743 mmHg 64%

Depois de amanhã, 31 Julho, Sábado

Tempo Temperatura Precipitação Vento Pressão Humidade
00:00 +20°C° 0 mm 1 m/s 743 mmHg 64%
01:00 +20°C° 0 mm 1 m/s 743 mmHg 65%
02:00 +19°C° 0 mm 2 m/s 743 mmHg 66%
03:00 +20°C° 0 mm 1 m/s 742 mmHg 66%
04:00 +20°C° 0 mm 1 m/s 742 mmHg 67%
05:00 +20°C° 0 mm 1 m/s 742 mmHg 67%
06:00 +21°C° 0 mm 1 m/s 742 mmHg 63%
07:00 +23°C° 0 mm 1 m/s 742 mmHg 60%
08:00 +25°C° 0 mm 1 m/s 742 mmHg 56%
09:00 +26°C° 0 mm 2 m/s 742 mmHg 52%
10:00 +28°C° 0 mm 2 m/s 742 mmHg 49%
11:00 +30°C° 0 mm 2 m/s 742 mmHg 45%
12:00 +31°C° 0 mm 2 m/s 742 mmHg 42%
13:00 +32°C° 0 mm 2 m/s 741 mmHg 39%
14:00 +32°C° 0 mm 2 m/s 741 mmHg 36%
15:00 +28°C° 8.1 mm 3 m/s 741 mmHg 56%
16:00 +23°C° 8.1 mm 4 m/s 741 mmHg 76%
17:00 +19°C° 8.1 mm 6 m/s 741 mmHg 96%
18:00 +19°C° 1.9 mm 4 m/s 741 mmHg 96%
19:00 +19°C° 1.9 mm 3 m/s 741 mmHg 96%
20:00 +19°C° 1.9 mm 2 m/s 742 mmHg 95%
21:00 +18°C° 0 mm 2 m/s 742 mmHg 95%
22:00 +18°C° 0 mm 2 m/s 742 mmHg 95%
23:00 +17°C° 0 mm 2 m/s 743 mmHg 95%

1 Agosto, Domingo

Tempo Temperatura Precipitação Vento Pressão Humidade
00:00 +17°C° 0 mm 3 m/s 743 mmHg 96%
01:00 +17°C° 0 mm 3 m/s 742 mmHg 96%
02:00 +17°C° 0 mm 4 m/s 742 mmHg 97%
03:00 +17°C° 0 mm 3 m/s 742 mmHg 96%
04:00 +16°C° 0 mm 3 m/s 743 mmHg 96%
05:00 +16°C° 0 mm 3 m/s 743 mmHg 96%
06:00 +18°C° 0 mm 2 m/s 743 mmHg 90%
07:00 +19°C° 0 mm 2 m/s 743 mmHg 84%
08:00 +20°C° 0 mm 2 m/s 743 mmHg 78%
09:00 +23°C° 0 mm 1 m/s 743 mmHg 70%
10:00 +24°C° 0 mm 1 m/s 743 mmHg 61%
11:00 +26°C° 0 mm 1 m/s 743 mmHg 53%
12:00 +25°C° 0 mm 1 m/s 743 mmHg 57%
13:00 +25°C° 0 mm 1 m/s 743 mmHg 61%
14:00 +25°C° 0 mm 1 m/s 742 mmHg 65%
15:00 +25°C° 0 mm 2 m/s 742 mmHg 64%
16:00 +25°C° 0 mm 3 m/s 742 mmHg 63%
17:00 +25°C° 0 mm 3 m/s 741 mmHg 62%
18:00 +24°C° 0.9 mm 3 m/s 741 mmHg 71%
19:00 +21°C° 0.9 mm 3 m/s 741 mmHg 80%
20:00 +19°C° 0.9 mm 3 m/s 740 mmHg 89%
21:00 +19°C° 0.5 mm 3 m/s 741 mmHg 90%
22:00 +18°C° 0.5 mm 2 m/s 741 mmHg 92%
23:00 +18°C° 0.5 mm 2 m/s 741 mmHg 94%

2 Agosto, Segunda-feira

Tempo Temperatura Precipitação Vento Pressão Humidade
00:00 +18°C° 0.2 mm 2 m/s 740 mmHg 95%
01:00 +18°C° 0.2 mm 2 m/s 740 mmHg 95%
02:00 +17°C° 0.2 mm 2 m/s 740 mmHg 96%
03:00 +17°C° 0.2 mm 2 m/s 740 mmHg 96%
04:00 +17°C° 0.2 mm 3 m/s 740 mmHg 96%
05:00 +17°C° 0.2 mm 3 m/s 740 mmHg 97%
06:00 +17°C° 0.2 mm 4 m/s 740 mmHg 96%
07:00 +15°C° 0.2 mm 4 m/s 740 mmHg 95%
08:00 +15°C° 0.2 mm 5 m/s 740 mmHg 94%
09:00 +15°C° 1 mm 5 m/s 741 mmHg 95%
10:00 +15°C° 1 mm 5 m/s 742 mmHg 95%
11:00 +15°C° 1 mm 6 m/s 742 mmHg 95%
12:00 +14°C° 0.5 mm 5 m/s 743 mmHg 94%
13:00 +14°C° 0.5 mm 5 m/s 743 mmHg 93%
14:00 +14°C° 0.5 mm 4 m/s 744 mmHg 92%
15:00 +15°C° 0.1 mm 4 m/s 744 mmHg 87%
16:00 +17°C° 0.1 mm 4 m/s 744 mmHg 83%
17:00 +16°C° 0.1 mm 5 m/s 745 mmHg 78%
18:00 +17°C° 0 mm 4 m/s 745 mmHg 81%
19:00 +16°C° 0 mm 3 m/s 745 mmHg 85%
20:00 +16°C° 0 mm 3 m/s 745 mmHg 88%
21:00 +14°C° 0 mm 3 m/s 745 mmHg 90%
22:00 +13°C° 0 mm 3 m/s 745 mmHg 92%
23:00 +13°C° 0 mm 3 m/s 745 mmHg 94%

3 Agosto, Terça-feira

Tempo Temperatura Precipitação Vento Pressão Humidade
00:00 +13°C° 0 mm 3 m/s 746 mmHg 94%
01:00 +13°C° 0 mm 3 m/s 746 mmHg 93%
02:00 +12°C° 0 mm 3 m/s 746 mmHg 93%
03:00 +12°C° 0 mm 3 m/s 746 mmHg 93%
04:00 +13°C° 0 mm 3 m/s 746 mmHg 92%
05:00 +13°C° 0 mm 3 m/s 746 mmHg 92%
06:00 +14°C° 0 mm 3 m/s 746 mmHg 88%
07:00 +16°C° 0 mm 3 m/s 746 mmHg 84%
08:00 +18°C° 0 mm 4 m/s 746 mmHg 80%
09:00 +19°C° 0.2 mm 4 m/s 746 mmHg 75%
10:00 +20°C° 0.2 mm 4 m/s 747 mmHg 70%
11:00 +22°C° 0.2 mm 4 m/s 747 mmHg 66%
12:00 +22°C° 0.8 mm 4 m/s 747 mmHg 65%
13:00 +22°C° 0.8 mm 5 m/s 747 mmHg 65%
14:00 +22°C° 0.8 mm 5 m/s 747 mmHg 65%
15:00 +22°C° 0.2 mm 5 m/s 747 mmHg 63%
16:00 +22°C° 0.2 mm 4 m/s 747 mmHg 61%
17:00 +22°C° 0.2 mm 4 m/s 747 mmHg 59%
18:00 +21°C° 0 mm 3 m/s 747 mmHg 63%
19:00 +20°C° 0 mm 2 m/s 747 mmHg 67%
20:00 +19°C° 0 mm 2 m/s 747 mmHg 71%
21:00 +18°C° 0 mm 2 m/s 747 mmHg 73%
22:00 +17°C° 0 mm 2 m/s 747 mmHg 75%
23:00 +16°C° 0 mm 2 m/s 747 mmHg 76%
Mostrar mais

Necessitamos do seu Consentimento

A Meteoprog e os seus Fornecedores de Serviços podem armazenar e aceder a dados pessoais como cookies, identificadores do dispositivo ou outras tecnologias semelhantes existentes no seu dispositivo e processar estes dados para personalizar conteúdos e anúncios, assim como funcionalidades nas redes sociais e análise de tráfego.

  • Armazenar e/ou aceder a informações no seu dispositivo

    Os cookies, identificadores do dispositivo ou outras informações podem ser armazenados ou acedidos no seu dispositivo, para os fins acima indicados.

  • Anúncios e conteúdos personalizados, medição de anúncios e conteúdos, dados sobre o público-alvo e desenvolvimento de produtos

    Os anúncios e os conteúdos podem ser personalizados com base num perfil. Podem ser adicionados dados adicionais para uma maior personalização dos anúncios e dos conteúdos. A eficácia dos anúncios e dos conteúdos pode ser medida. Podem ser obtidas informações sobre o público que visualizou os anúncios e os conteúdos. Estes dados podem ser usados para desenvolver ou melhorar sistemas, softwares ou a experiência do utilizador.

Ao clicar em "Eu concordo”, permitirá o uso de cookies, identificadores do dispositivo e web beacons mencionados ou outras tecnologias semelhantes. As configurações do navegador do seu dispositivo podem ser alteradas.

Para certos fins, podem ser invocados interesses legítimos ao invés de consentimento. Pode ler mais informação sobre este assunto na nossa Política de Privacidade e Cookies.